星链-34177 (STARLINK-34177)

导读

STARLINK-34177是美国星链计划中的一颗卫星,于2025年5月28日发射升空。星链项目旨在构建全球卫星互联网星座,为全球偏远地区、海洋等网络覆盖盲区提供高速宽带服务。该卫星加入后,进一步扩大了星链星座的规模,提升了星座的服务覆盖能力与网络性能,推动全球互联基础设施的建设。

Basic Information
目录编号:
64170
目录名称:
STARLINK-34177
国际标识:
2025-113A
轨道中心:
EARTH
卫星名称:
星链-34177
卫星全名:
星链-34177 (STARLINK-34177)
卫星状态:
在轨 (已飞行382 天)
发射日期:
2025-05-28 UTC
国别 :
美国 (US)
星等 :
--
Orbit Information
数据来源 国际轨道数据 AOE轨道数据
星历时间 2026-06-14T03:54:56+0800
7小时前
查看轨道信息
2026-06-11T18:00:00+0800
2天前
查看轨道信息
半长轴 6848.86km 6848.872km
偏心率 0.000102 0.0002854
轨道倾角 53.160° 53.163°
近地点辐角 22.070° 54.942°
升交点赤经 3.941° 15.183°
平近点角 338.034° 311.345°
近地点 470.024km 468.78km
远地点 471.422km 472.69km
周期 94.013分钟 94.013分钟
每日圈数 15.317059 15.317018
Detailed Information
固有亮度:
5
最大亮度:
2.5
卫星平台:
Starlink V1.0
覆盖范围:
全球
运营商:
太空探索技术公司
运营商所在国:
美国
制造商(研发单位):
太空探索技术公司
制造商所在国:
美国
使用方式:
暂无
Satellite Introduction
Starlink 计划是 SpaceX 推出的全球卫星互联网项目,通过发射低轨道卫星,为全球尤其是偏远地区提供高速、低延迟的互联网服务。自 2019 年起,Starlink 已部署数千颗卫星,旨在缩小全球数字鸿沟,推动互联网普及。该项目还为军事、航空等行业提供通信支持,带来广泛经济效益。
2D Orbit Map
3D Orbit Map
Orbit Altitude Analysis Chart
Orbit Inclination Analysis Chart
Orbit Comprehensive Analysis Chart
View Comprehensive Chart